TimeCST,TemperatureF,Dew PointF,Humidity,Sea Level PressureIn,VisibilityMPH,Wind Direction,Wind SpeedMPH,Gust SpeedMPH,PrecipitationIn,Events,Conditions,WindDirDegrees,DateUTC
12:53 AM,43.0,36.0,76,30.16,10.0,WNW,4.6,-,N/A,,Clear,290,2012-11-07 06:53:00
1:53 AM,42.1,35.1,76,30.16,10.0,Calm,Calm,-,N/A,,Clear,0,2012-11-07 07:53:00
2:53 AM,41.0,36.0,82,30.17,10.0,NW,3.5,-,N/A,,Clear,310,2012-11-07 08:53:00
3:53 AM,41.0,35.1,79,30.15,10.0,Calm,Calm,-,N/A,,Clear,0,2012-11-07 09:53:00
4:53 AM,37.9,35.1,89,30.16,10.0,Calm,Calm,-,N/A,,Clear,0,2012-11-07 10:53:00
6:53 AM,36.0,34.0,93,30.19,10.0,Calm,Calm,-,N/A,,Clear,0,2012-11-07 12:53:00
7:53 AM,41.0,36.0,82,30.21,10.0,Calm,Calm,-,N/A,,Clear,0,2012-11-07 13:53:00
8:53 AM,55.9,39.9,55,30.22,10.0,Calm,Calm,-,N/A,,Clear,0,2012-11-07 14:53:00
9:53 AM,61.0,37.9,42,30.21,10.0,ESE,3.5,-,N/A,,Clear,110,2012-11-07 15:53:00
10:53 AM,64.9,32.0,29,30.19,10.0,Variable,4.6,-,N/A,,Clear,0,2012-11-07 16:53:00
11:53 AM,68.0,32.0,26,30.16,10.0,South,10.4,-,N/A,,Clear,170,2012-11-07 17:53:00
12:53 PM,69.1,33.1,26,30.12,10.0,SSE,11.5,-,N/A,,Clear,160,2012-11-07 18:53:00
1:53 PM,71.1,33.1,25,30.08,10.0,SSE,11.5,16.1,N/A,,Clear,160,2012-11-07 19:53:00
2:53 PM,72.0,34.0,25,30.07,10.0,SSE,9.2,-,N/A,,Clear,150,2012-11-07 20:53:00
3:53 PM,73.0,35.1,25,30.05,10.0,SSE,9.2,-,N/A,,Clear,150,2012-11-07 21:53:00
4:53 PM,71.1,35.1,27,30.05,10.0,SE,9.2,-,N/A,,Clear,140,2012-11-07 22:53:00
5:53 PM,64.0,36.0,35,30.04,10.0,ESE,5.8,-,N/A,,Clear,110,2012-11-07 23:53:00
6:53 PM,60.1,37.0,42,30.05,10.0,ESE,5.8,-,N/A,,Clear,120,2012-11-08 00:53:00
7:53 PM,59.0,36.0,42,30.05,10.0,SE,8.1,-,N/A,,Clear,130,2012-11-08 01:53:00
8:53 PM,57.0,36.0,45,30.04,10.0,ESE,6.9,-,N/A,,Clear,120,2012-11-08 02:53:00
9:53 PM,54.0,35.1,49,30.05,10.0,ESE,5.8,-,N/A,,Clear,120,2012-11-08 03:53:00
10:53 PM,52.0,35.1,53,30.04,10.0,ESE,4.6,-,N/A,,Clear,120,2012-11-08 04:53:00
11:53 PM,53.1,35.1,50,30.02,10.0,ESE,6.9,-,N/A,,Clear,120,2012-11-08 05:53:00